Back to catalog

THORAD DELTA 1 DEB

AliveSSO
NORAD 8181·DEBRIS·🇺🇸 United States

Launched Nov 15, 1974 from Vandenberg Space Force Base

Loading…

Next Passes (next 24 hours)

TLE

FreshSource: Space-Track

Epoch: Sep 14, 2026, 13:02 UTC

1 08181U 74089AX  26257.54363640  .00000051  00000-0  69174-3 0  9995
2 08181 101.6965   0.6188 0068289 192.7873 236.3732 12.40357043345457

Track THORAD DELTA 1 DEB in real time with AllMySat

Download on the App Store